Time,TemperatureF,DewpointF,PressureIn,WindDirection,WindDirectionDegrees,WindSpeedMPH,WindSpeedGustMPH,Humidity,HourlyPrecipIn,Conditions,Clouds,dailyrainin,SoftwareType,DateUTC
2013-06-08 00:00:00,66.2,60.6,29.90,NE,51,0.0,0.0,82,0.00,,,0.00,meteohub,2013-06-08 05:00:00,
2013-06-08 00:05:00,66.0,60.4,29.90,NE,51,0.0,0.0,82,0.00,,,0.00,meteohub,2013-06-08 05:05:00,
2013-06-08 00:10:00,66.0,60.1,29.90,NE,51,0.0,0.0,81,0.00,,,0.00,meteohub,2013-06-08 05:10:00,
2013-06-08 00:15:00,65.8,59.5,29.90,NE,51,0.0,0.0,80,0.00,,,0.00,meteohub,2013-06-08 05:15:00,
2013-06-08 00:20:00,65.8,59.9,29.90,NE,51,0.0,0.0,81,0.00,,,0.00,meteohub,2013-06-08 05:20:00,
2013-06-08 00:25:00,65.8,60.3,29.90,NE,51,0.0,0.0,82,0.00,,,0.00,meteohub,2013-06-08 05:25:00,
2013-06-08 00:30:00,65.7,60.1,29.90,NE,51,0.0,0.0,82,0.00,,,0.00,meteohub,2013-06-08 05:30:00,
2013-06-08 00:35:00,65.5,60.3,29.90,NE,51,0.0,0.0,83,0.00,,,0.00,meteohub,2013-06-08 05:35:00,
2013-06-08 00:40:00,65.3,60.1,29.90,NE,51,0.0,0.0,83,0.00,,,0.00,meteohub,2013-06-08 05:40:00,
2013-06-08 00:45:00,65.1,60.1,29.90,NE,51,0.0,0.0,84,0.00,,,0.00,meteohub,2013-06-08 05:45:00,
2013-06-08 00:50:00,64.9,60.3,29.89,NE,51,0.0,0.0,85,0.00,,,0.00,meteohub,2013-06-08 05:50:00,
2013-06-08 00:55:00,64.8,60.1,29.89,NE,51,0.0,0.0,85,0.00,,,0.00,meteohub,2013-06-08 05:55:00,
2013-06-08 01:00:00,64.6,60.3,29.89,NE,51,0.0,0.0,86,0.00,,,0.00,meteohub,2013-06-08 06:00:00,
2013-06-08 01:05:00,64.4,60.1,29.88,NE,51,0.0,0.0,86,0.00,,,0.00,meteohub,2013-06-08 06:05:00,
2013-06-08 01:10:00,64.2,59.9,29.88,NE,51,0.0,0.0,86,0.00,,,0.00,meteohub,2013-06-08 06:10:00,
2013-06-08 01:15:00,64.0,59.7,29.88,NE,51,0.0,0.0,86,0.00,,,0.00,meteohub,2013-06-08 06:15:00,
2013-06-08 01:20:00,63.9,59.9,29.88,NE,51,0.0,0.0,87,0.00,,,0.00,meteohub,2013-06-08 06:20:00,
2013-06-08 01:25:00,63.7,59.7,29.88,NE,51,0.0,0.0,87,0.00,,,0.00,meteohub,2013-06-08 06:25:00,
2013-06-08 01:30:00,63.3,59.7,29.88,NE,51,0.0,0.0,88,0.00,,,0.00,meteohub,2013-06-08 06:30:00,
2013-06-08 01:35:00,63.3,60.3,29.88,NE,51,0.0,0.0,90,0.00,,,0.00,meteohub,2013-06-08 06:35:00,
2013-06-08 01:40:00,63.3,60.3,29.88,NE,51,0.0,0.0,90,0.00,,,0.00,meteohub,2013-06-08 06:40:00,
2013-06-08 01:45:00,63.3,60.3,29.88,NE,51,0.0,0.0,90,0.00,,,0.00,meteohub,2013-06-08 06:45:00,
2013-06-08 01:50:00,63.1,60.4,29.88,NE,51,0.0,0.0,91,0.00,,,0.00,meteohub,2013-06-08 06:50:00,
2013-06-08 01:55:00,63.1,60.4,29.88,NE,51,0.0,0.0,91,0.00,,,0.00,meteohub,2013-06-08 06:55:00,
2013-06-08 02:00:00,63.1,60.4,29.89,NE,51,0.0,0.0,91,0.00,,,0.00,meteohub,2013-06-08 07:00:00,
2013-06-08 02:06:00,63.1,60.4,29.89,NE,51,0.0,0.0,91,0.00,,,0.00,meteohub,2013-06-08 07:06:00,
2013-06-08 02:11:00,63.1,60.4,29.89,NE,51,0.0,0.0,91,0.00,,,0.00,meteohub,2013-06-08 07:11:00,
2013-06-08 02:16:00,63.0,59.7,29.89,NE,51,0.0,0.0,89,0.00,,,0.00,meteohub,2013-06-08 07:16:00,
2013-06-08 02:21:00,63.0,59.0,29.89,NE,51,0.0,0.0,87,0.00,,,0.00,meteohub,2013-06-08 07:21:00,
2013-06-08 02:26:00,63.1,58.8,29.89,NE,51,0.0,0.0,86,0.00,,,0.00,meteohub,2013-06-08 07:26:00,
2013-06-08 02:31:00,63.1,58.6,29.89,NE,51,0.0,0.0,85,0.00,,,0.00,meteohub,2013-06-08 07:31:00,
2013-06-08 02:36:00,63.3,58.1,29.90,NE,51,0.0,1.0,83,0.00,,,0.00,meteohub,2013-06-08 07:36:00,
2013-06-08 02:41:00,63.5,58.6,29.89,NE,51,0.0,1.0,84,0.00,,,0.00,meteohub,2013-06-08 07:41:00,
2013-06-08 02:47:00,63.7,58.5,29.90,NE,51,0.0,1.0,83,0.00,,,0.00,meteohub,2013-06-08 07:47:00,
2013-06-08 02:52:00,63.7,58.5,29.89,NE,51,0.0,0.0,83,0.00,,,0.00,meteohub,2013-06-08 07:52:00,
2013-06-08 02:57:00,63.7,58.5,29.89,NE,51,0.0,0.0,83,0.00,,,0.00,meteohub,2013-06-08 07:57:00,
2013-06-08 03:02:00,63.7,58.8,29.89,NE,51,0.0,0.0,84,0.00,,,0.00,meteohub,2013-06-08 08:02:00,
2013-06-08 03:07:00,63.5,58.6,29.90,NE,51,0.0,0.0,84,0.00,,,0.00,meteohub,2013-06-08 08:07:00,
2013-06-08 03:12:00,63.3,58.5,29.89,NE,51,0.0,0.0,84,0.00,,,0.00,meteohub,2013-06-08 08:12:00,
2013-06-08 03:17:00,63.1,58.3,29.89,NE,51,0.0,0.0,84,0.00,,,0.00,meteohub,2013-06-08 08:17:00,
2013-06-08 03:22:00,63.1,58.6,29.89,NE,51,0.0,0.0,85,0.00,,,0.00,meteohub,2013-06-08 08:22:00,
2013-06-08 03:27:00,63.0,58.5,29.89,NE,51,0.0,0.0,85,0.00,,,0.00,meteohub,2013-06-08 08:27:00,
2013-06-08 03:32:00,62.8,58.3,29.89,NE,51,0.0,0.0,85,0.00,,,0.00,meteohub,2013-06-08 08:32:00,
2013-06-08 03:37:00,62.6,58.3,29.89,NE,51,0.0,0.0,86,0.00,,,0.00,meteohub,2013-06-08 08:37:00,
2013-06-08 03:42:00,62.4,58.5,29.89,NE,51,0.0,0.0,87,0.00,,,0.00,meteohub,2013-06-08 08:42:00,
2013-06-08 03:47:00,62.2,58.3,29.89,NE,51,0.0,0.0,87,0.00,,,0.00,meteohub,2013-06-08 08:47:00,
2013-06-08 03:52:00,62.1,58.1,29.89,NE,51,0.0,0.0,87,0.00,,,0.00,meteohub,2013-06-08 08:52:00,
2013-06-08 03:57:00,62.1,58.5,29.89,NE,51,0.0,0.0,88,0.00,,,0.00,meteohub,2013-06-08 08:57:00,
2013-06-08 04:02:00,61.7,58.5,29.89,NE,51,0.0,0.0,89,0.00,,,0.00,meteohub,2013-06-08 09:02:00,
2013-06-08 04:07:00,61.5,58.3,29.89,NE,51,0.0,0.0,89,0.00,,,0.00,meteohub,2013-06-08 09:07:00,
2013-06-08 04:12:00,61.5,58.3,29.89,NE,51,0.0,0.0,89,0.00,,,0.00,meteohub,2013-06-08 09:12:00,
2013-06-08 04:17:00,61.3,58.1,29.89,NE,51,0.0,0.0,89,0.00,,,0.00,meteohub,2013-06-08 09:17:00,
2013-06-08 04:22:00,61.3,58.1,29.89,NE,51,0.0,0.0,89,0.00,,,0.00,meteohub,2013-06-08 09:22:00,
2013-06-08 04:27:00,61.2,58.3,29.89,NE,51,0.0,0.0,90,0.00,,,0.00,meteohub,2013-06-08 09:27:00,
2013-06-08 04:32:00,61.2,58.3,29.89,NE,51,0.0,0.0,90,0.00,,,0.00,meteohub,2013-06-08 09:32:00,
2013-06-08 04:37:00,61.2,58.5,29.89,NE,51,0.0,0.0,91,0.00,,,0.00,meteohub,2013-06-08 09:37:00,
2013-06-08 04:42:00,61.2,58.5,29.89,NE,51,0.0,0.0,91,0.00,,,0.00,meteohub,2013-06-08 09:42:00,
2013-06-08 04:47:00,61.2,58.5,29.89,NE,51,0.0,0.0,91,0.00,,,0.00,meteohub,2013-06-08 09:47:00,
2013-06-08 04:53:00,61.3,58.6,29.90,NE,51,0.0,0.0,91,0.00,,,0.00,meteohub,2013-06-08 09:53:00,
2013-06-08 04:58:00,61.3,58.6,29.90,NE,51,0.0,0.0,91,0.00,,,0.00,meteohub,2013-06-08 09:58:00,
2013-06-08 05:03:00,61.3,58.6,29.90,NE,51,0.0,0.0,91,0.00,,,0.00,meteohub,2013-06-08 10:03:00,
2013-06-08 05:08:00,61.3,58.6,29.89,NE,51,0.0,0.0,91,0.00,,,0.00,meteohub,2013-06-08 10:08:00,
2013-06-08 05:13:00,61.3,58.6,29.89,NE,51,0.0,0.0,91,0.00,,,0.00,meteohub,2013-06-08 10:13:00,
2013-06-08 05:18:00,61.3,58.6,29.89,NE,51,0.0,0.0,91,0.00,,,0.00,meteohub,2013-06-08 10:18:00,
2013-06-08 05:23:00,61.2,58.5,29.89,NE,51,0.0,1.0,91,0.00,,,0.00,meteohub,2013-06-08 10:23:00,
2013-06-08 05:28:00,61.0,58.3,29.89,NE,51,0.0,1.0,91,0.00,,,0.00,meteohub,2013-06-08 10:28:00,
2013-06-08 05:33:00,60.8,58.1,29.89,NE,51,0.0,0.0,91,0.00,,,0.00,meteohub,2013-06-08 10:33:00,
2013-06-08 05:38:00,60.6,58.3,29.89,NE,51,0.0,0.0,92,0.00,,,0.00,meteohub,2013-06-08 10:38:00,
2013-06-08 05:43:00,60.4,58.1,29.89,NE,51,0.0,0.0,92,0.00,,,0.00,meteohub,2013-06-08 10:43:00,
2013-06-08 05:48:00,60.4,58.5,29.89,NE,51,0.0,0.0,93,0.00,,,0.00,meteohub,2013-06-08 10:48:00,
2013-06-08 05:53:00,60.4,58.5,29.89,NE,51,0.0,0.0,93,0.00,,,0.00,meteohub,2013-06-08 10:53:00,
2013-06-08 05:58:00,60.3,58.3,29.89,NE,51,0.0,0.0,93,0.00,,,0.00,meteohub,2013-06-08 10:58:00,
2013-06-08 06:03:00,60.3,58.3,29.89,NE,51,0.0,0.0,93,0.00,,,0.00,meteohub,2013-06-08 11:03:00,
2013-06-08 06:08:00,60.1,58.1,29.89,NE,51,0.0,0.0,93,0.00,,,0.00,meteohub,2013-06-08 11:08:00,
2013-06-08 06:13:00,60.1,58.1,29.89,NE,51,0.0,0.0,93,0.00,,,0.00,meteohub,2013-06-08 11:13:00,
2013-06-08 06:18:00,60.1,58.3,29.89,NE,51,0.0,0.0,94,0.00,,,0.00,meteohub,2013-06-08 11:18:00,
2013-06-08 06:23:00,60.1,58.3,29.89,NE,51,0.0,0.0,94,0.00,,,0.00,meteohub,2013-06-08 11:23:00,
2013-06-08 06:29:00,60.1,58.3,29.90,NE,51,0.0,0.0,94,0.00,,,0.00,meteohub,2013-06-08 11:29:00,
2013-06-08 06:34:00,60.1,58.3,29.90,NE,51,0.0,0.0,94,0.00,,,0.00,meteohub,2013-06-08 11:34:00,
2013-06-08 06:39:00,60.1,58.3,29.91,NE,51,0.0,0.0,94,0.00,,,0.00,meteohub,2013-06-08 11:39:00,
2013-06-08 06:44:00,60.1,58.6,29.91,NE,51,0.0,0.0,95,0.00,,,0.00,meteohub,2013-06-08 11:44:00,
2013-06-08 06:49:00,60.3,59.2,29.91,WNW,288,0.0,0.0,96,0.00,,,0.00,meteohub,2013-06-08 11:49:00,
2013-06-08 06:54:00,60.4,59.4,29.91,WNW,288,0.0,0.0,96,0.00,,,0.00,meteohub,2013-06-08 11:54:00,
2013-06-08 06:59:00,60.8,59.9,29.91,WNW,288,0.0,0.0,97,0.00,,,0.00,meteohub,2013-06-08 11:59:00,
2013-06-08 07:04:00,61.2,60.3,29.91,WNW,288,0.0,0.0,97,0.00,,,0.00,meteohub,2013-06-08 12:04:00,
2013-06-08 07:09:00,61.5,60.6,29.91,WNW,288,0.0,0.0,97,0.00,,,0.00,meteohub,2013-06-08 12:09:00,
2013-06-08 07:14:00,62.1,61.2,29.91,WNW,288,0.0,0.0,97,0.00,,,0.00,meteohub,2013-06-08 12:14:00,
2013-06-08 07:19:00,62.4,61.9,29.91,WNW,288,0.0,0.0,98,0.00,,,0.00,meteohub,2013-06-08 12:19:00,
2013-06-08 07:24:00,63.0,62.4,29.91,WNW,288,0.0,0.0,98,0.00,,,0.00,meteohub,2013-06-08 12:24:00,
2013-06-08 07:29:00,63.1,62.6,29.91,WNW,288,0.0,0.0,98,0.00,,,0.00,meteohub,2013-06-08 12:29:00,
2013-06-08 07:34:00,63.5,63.0,29.92,WNW,288,0.0,0.0,98,0.00,,,0.00,meteohub,2013-06-08 12:34:00,
2013-06-08 07:39:00,63.9,63.3,29.92,WNW,288,0.0,0.0,98,0.00,,,0.00,meteohub,2013-06-08 12:39:00,
2013-06-08 07:44:00,64.0,63.5,29.92,WNW,288,0.0,0.0,98,0.00,,,0.00,meteohub,2013-06-08 12:44:00,
2013-06-08 07:49:00,64.2,63.3,29.92,WNW,288,0.0,0.0,97,0.00,,,0.00,meteohub,2013-06-08 12:49:00,
2013-06-08 07:54:00,64.8,63.9,29.91,WNW,288,0.0,0.0,97,0.00,,,0.00,meteohub,2013-06-08 12:54:00,
2013-06-08 07:59:00,65.1,64.2,29.91,WNW,288,0.0,0.0,97,0.00,,,0.00,meteohub,2013-06-08 12:59:00,
2013-06-08 08:04:00,65.7,64.8,29.91,WSW,243,1.0,0.0,97,0.00,,,0.00,meteohub,2013-06-08 13:04:00,
2013-06-08 08:09:00,66.0,64.2,29.92,SE,144,1.0,1.0,94,0.00,,,0.00,meteohub,2013-06-08 13:09:00,
2013-06-08 08:14:00,66.7,64.9,29.92,SE,144,0.0,2.0,94,0.00,,,0.00,meteohub,2013-06-08 13:14:00,
2013-06-08 08:20:00,68.2,64.8,29.92,SE,144,0.0,2.0,89,0.00,,,0.00,meteohub,2013-06-08 13:20:00,
2013-06-08 08:25:00,69.4,65.5,29.92,SE,143,1.0,2.0,87,0.00,,,0.00,meteohub,2013-06-08 13:25:00,
2013-06-08 08:30:00,70.9,64.0,29.92,SE,142,1.0,2.0,79,0.00,,,0.00,meteohub,2013-06-08 13:30:00,
2013-06-08 08:35:00,72.3,64.4,29.92,SE,142,1.0,2.0,76,0.00,,,0.00,meteohub,2013-06-08 13:35:00,
2013-06-08 08:40:00,73.9,65.1,29.92,SE,142,1.0,2.0,74,0.00,,,0.00,meteohub,2013-06-08 13:40:00,
2013-06-08 08:45:00,74.8,64.4,29.92,ESE,115,1.0,2.0,70,0.00,,,0.00,meteohub,2013-06-08 13:45:00,
2013-06-08 08:50:00,75.6,65.1,29.92,East,94,0.0,3.0,70,0.00,,,0.00,meteohub,2013-06-08 13:50:00,
2013-06-08 08:55:00,76.5,66.0,29.93,SE,144,1.0,3.0,70,0.00,,,0.00,meteohub,2013-06-08 13:55:00,
2013-06-08 09:00:00,77.0,66.4,29.93,SE,128,2.0,3.0,70,0.00,,,0.00,meteohub,2013-06-08 14:00:00,
2013-06-08 09:05:00,77.7,65.8,29.93,ESE,113,1.0,4.0,67,0.00,,,0.00,meteohub,2013-06-08 14:05:00,
2013-06-08 09:10:00,78.3,66.7,29.93,SE,142,0.0,4.0,68,0.00,,,0.00,meteohub,2013-06-08 14:10:00,
2013-06-08 09:15:00,78.4,66.2,29.93,East,86,0.0,4.0,66,0.00,,,0.00,meteohub,2013-06-08 14:15:00,
2013-06-08 09:20:00,79.0,66.2,29.93,ESE,103,0.0,4.0,65,0.00,,,0.00,meteohub,2013-06-08 14:20:00,
2013-06-08 09:25:00,79.3,66.0,29.93,ENE,78,1.0,4.0,64,0.00,,,0.00,meteohub,2013-06-08 14:25:00,
2013-06-08 09:30:00,79.5,67.1,29.93,SSE,153,1.0,5.0,66,0.00,,,0.00,meteohub,2013-06-08 14:30:00,
2013-06-08 09:35:00,80.2,68.4,29.93,SE,145,2.0,5.0,67,0.00,,,0.00,meteohub,2013-06-08 14:35:00,
2013-06-08 09:40:00,81.0,68.9,29.93,SSE,158,3.0,4.0,67,0.00,,,0.00,meteohub,2013-06-08 14:40:00,
2013-06-08 09:45:00,81.3,67.5,29.92,ENE,69,2.0,4.0,63,0.00,,,0.00,meteohub,2013-06-08 14:45:00,
2013-06-08 09:50:00,81.9,68.0,29.92,SSE,161,2.0,4.0,63,0.00,,,0.00,meteohub,2013-06-08 14:50:00,
2013-06-08 09:55:00,82.6,69.1,29.92,South,190,2.0,4.0,64,0.00,,,0.00,meteohub,2013-06-08 14:55:00,
2013-06-08 10:00:00,83.5,67.6,29.92,SE,140,1.0,6.0,59,0.00,,,0.00,meteohub,2013-06-08 15:00:00,
2013-06-08 10:06:00,83.7,67.8,29.92,SE,131,0.0,6.0,59,0.00,,,0.00,meteohub,2013-06-08 15:06:00,
2013-06-08 10:11:00,83.3,67.5,29.92,ENE,69,1.0,6.0,59,0.00,,,0.00,meteohub,2013-06-08 15:11:00,
2013-06-08 10:16:00,82.9,68.2,29.92,ESE,111,0.0,5.0,61,0.00,,,0.00,meteohub,2013-06-08 15:16:00,
2013-06-08 10:21:00,83.5,68.5,29.92,SE,144,1.0,5.0,61,0.00,,,0.00,meteohub,2013-06-08 15:21:00,
2013-06-08 10:26:00,83.8,68.5,29.92,ESE,113,1.0,5.0,60,0.00,,,0.00,meteohub,2013-06-08 15:26:00,
2013-06-08 10:31:00,84.0,68.2,29.92,ESE,115,1.0,5.0,59,0.00,,,0.00,meteohub,2013-06-08 15:31:00,
2013-06-08 10:37:00,84.4,67.5,29.92,ESE,115,2.0,7.0,57,0.00,,,0.00,meteohub,2013-06-08 15:37:00,
2013-06-08 10:42:00,84.0,67.1,29.91,ESE,119,3.0,7.0,57,0.00,,,0.00,meteohub,2013-06-08 15:42:00,
2013-06-08 10:47:00,83.8,66.4,29.91,SE,143,0.0,7.0,56,0.00,,,0.00,meteohub,2013-06-08 15:47:00,
2013-06-08 10:52:00,84.2,68.4,29.91,SSE,157,4.0,7.0,59,0.00,,,0.00,meteohub,2013-06-08 15:52:00,
2013-06-08 10:57:00,84.6,63.9,29.91,ESE,121,1.0,7.0,50,0.00,,,0.00,meteohub,2013-06-08 15:57:00,
2013-06-08 11:02:00,84.7,66.7,29.91,SE,142,1.0,7.0,55,0.00,,,0.00,meteohub,2013-06-08 16:02:00,
2013-06-08 11:07:00,84.9,65.8,29.91,SSE,151,2.0,7.0,53,0.00,,,0.00,meteohub,2013-06-08 16:07:00,
2013-06-08 11:12:00,84.9,65.8,29.91,East,88,2.0,7.0,53,0.00,,,0.00,meteohub,2013-06-08 16:12:00,
2013-06-08 11:17:00,84.7,64.6,29.91,NE,44,1.0,7.0,51,0.00,,,0.00,meteohub,2013-06-08 16:17:00,
2013-06-08 11:22:00,84.4,66.4,29.91,SSE,161,1.0,7.0,55,0.00,,,0.00,meteohub,2013-06-08 16:22:00,
2013-06-08 11:27:00,85.1,66.0,29.91,SE,130,2.0,5.0,53,0.00,,,0.00,meteohub,2013-06-08 16:27:00,
2013-06-08 11:32:00,85.6,64.9,29.91,ENE,63,1.0,5.0,50,0.00,,,0.00,meteohub,2013-06-08 16:32:00,
2013-06-08 11:37:00,86.0,65.8,29.91,ESE,113,2.0,6.0,51,0.00,,,0.00,meteohub,2013-06-08 16:37:00,
2013-06-08 11:42:00,86.4,66.0,29.91,ESE,104,4.0,8.0,51,0.00,,,0.00,meteohub,2013-06-08 16:42:00,
2013-06-08 11:47:00,86.7,66.9,29.91,SE,128,3.0,8.0,52,0.00,,,0.00,meteohub,2013-06-08 16:47:00,
2013-06-08 11:52:00,87.4,65.8,29.91,South,180,2.0,8.0,49,0.00,,,0.00,meteohub,2013-06-08 16:52:00,
2013-06-08 11:57:00,88.0,65.3,29.91,South,184,2.0,6.0,47,0.00,,,0.00,meteohub,2013-06-08 16:57:00,
2013-06-08 12:02:00,87.1,65.7,29.91,South,182,0.0,11.0,49,0.00,,,0.00,meteohub,2013-06-08 17:02:00,
2013-06-08 12:07:00,86.0,64.6,29.91,SSE,158,1.0,11.0,49,0.00,,,0.00,meteohub,2013-06-08 17:07:00,
2013-06-08 12:12:00,85.5,66.9,29.91,East,80,1.0,7.0,54,0.00,,,0.00,meteohub,2013-06-08 17:12:00,
2013-06-08 12:17:00,85.3,65.7,29.90,SSE,153,0.0,7.0,52,0.00,,,0.00,meteohub,2013-06-08 17:17:00,
2013-06-08 12:22:00,85.8,67.3,29.90,SSW,202,1.0,6.0,54,0.00,,,0.00,meteohub,2013-06-08 17:22:00,
2013-06-08 12:27:00,86.5,67.5,29.90,West,263,2.0,6.0,53,0.00,,,0.00,meteohub,2013-06-08 17:27:00,
2013-06-08 12:32:00,87.4,65.3,29.90,WSW,257,0.0,6.0,48,0.00,,,0.00,meteohub,2013-06-08 17:32:00,
2013-06-08 12:38:00,87.1,68.4,29.89,WNW,293,1.0,6.0,54,0.00,,,0.00,meteohub,2013-06-08 17:38:00,
2013-06-08 12:43:00,87.4,66.6,29.89,ESE,113,2.0,6.0,50,0.00,,,0.00,meteohub,2013-06-08 17:43:00,
2013-06-08 12:48:00,87.4,64.8,29.89,South,171,2.0,6.0,47,0.00,,,0.00,meteohub,2013-06-08 17:48:00,
2013-06-08 12:53:00,87.1,66.2,29.89,SSW,210,1.0,5.0,50,0.00,,,0.00,meteohub,2013-06-08 17:53:00,
2013-06-08 12:58:00,86.5,66.2,29.89,WSW,238,0.0,5.0,51,0.00,,,0.00,meteohub,2013-06-08 17:58:00,
2013-06-08 13:03:00,85.8,65.7,29.88,ESE,116,1.0,5.0,51,0.00,,,0.00,meteohub,2013-06-08 18:03:00,
2013-06-08 13:08:00,85.3,66.2,29.88,SSE,155,2.0,7.0,53,0.00,,,0.00,meteohub,2013-06-08 18:08:00,
2013-06-08 13:13:00,85.8,66.7,29.88,South,178,2.0,7.0,53,0.00,,,0.00,meteohub,2013-06-08 18:13:00,
2013-06-08 13:18:00,86.4,65.5,29.87,ESE,119,0.0,7.0,50,0.00,,,0.00,meteohub,2013-06-08 18:18:00,
2013-06-08 13:23:00,86.5,66.2,29.87,South,171,0.0,5.0,51,0.00,,,0.00,meteohub,2013-06-08 18:23:00,
2013-06-08 13:28:00,86.7,66.4,29.86,SE,131,4.0,8.0,51,0.00,,,0.00,meteohub,2013-06-08 18:28:00,
2013-06-08 13:33:00,86.7,65.8,29.86,SE,138,2.0,8.0,50,0.00,,,0.00,meteohub,2013-06-08 18:33:00,
2013-06-08 13:38:00,86.9,66.0,29.86,SE,134,3.0,8.0,50,0.00,,,0.00,meteohub,2013-06-08 18:38:00,
2013-06-08 13:43:00,87.1,64.9,29.86,South,171,2.0,8.0,48,0.00,,,0.00,meteohub,2013-06-08 18:43:00,
2013-06-08 13:48:00,87.4,67.6,29.85,ESE,123,2.0,7.0,52,0.00,,,0.00,meteohub,2013-06-08 18:48:00,
2013-06-08 13:53:00,88.0,65.8,29.85,ESE,112,3.0,6.0,48,0.00,,,0.00,meteohub,2013-06-08 18:53:00,
2013-06-08 13:58:00,88.2,67.1,29.85,SW,234,0.0,6.0,50,0.00,,,0.00,meteohub,2013-06-08 18:58:00,
2013-06-08 14:03:00,88.3,67.3,29.85,East,97,2.0,11.0,50,0.00,,,0.00,meteohub,2013-06-08 19:03:00,
2013-06-08 14:08:00,88.3,66.2,29.85,SSW,211,2.0,11.0,48,0.00,,,0.00,meteohub,2013-06-08 19:08:00,
2013-06-08 14:13:00,88.3,65.5,29.85,WSW,246,0.0,8.0,47,0.00,,,0.00,meteohub,2013-06-08 19:13:00,
2013-06-08 14:18:00,88.9,64.8,29.85,North,349,0.0,9.0,45,0.00,,,0.00,meteohub,2013-06-08 19:18:00,
2013-06-08 14:23:00,88.9,68.9,29.85,SE,131,2.0,9.0,52,0.00,,,0.00,meteohub,2013-06-08 19:23:00,
2013-06-08 14:28:00,88.9,66.0,29.84,SSE,150,2.0,9.0,47,0.00,,,0.00,meteohub,2013-06-08 19:28:00,
2013-06-08 14:34:00,88.9,67.3,29.84,East,80,1.0,7.0,49,0.00,,,0.00,meteohub,2013-06-08 19:34:00,
2013-06-08 14:39:00,88.2,65.3,29.84,SE,128,2.0,7.0,47,0.00,,,0.00,meteohub,2013-06-08 19:39:00,
2013-06-08 14:44:00,87.4,64.8,29.84,SE,139,2.0,7.0,47,0.00,,,0.00,meteohub,2013-06-08 19:44:00,
2013-06-08 14:49:00,87.4,66.6,29.84,SSE,162,1.0,5.0,50,0.00,,,0.00,meteohub,2013-06-08 19:49:00,
2013-06-08 14:54:00,87.4,64.8,29.84,SW,220,0.0,7.0,47,0.00,,,0.00,meteohub,2013-06-08 19:54:00,
2013-06-08 14:59:00,88.0,65.8,29.84,WSW,257,0.0,7.0,48,0.00,,,0.00,meteohub,2013-06-08 19:59:00,
2013-06-08 15:04:00,88.0,66.4,29.84,WSW,242,3.0,7.0,49,0.00,,,0.00,meteohub,2013-06-08 20:04:00,
2013-06-08 15:09:00,88.3,66.2,29.83,SW,221,1.0,7.0,48,0.00,,,0.00,meteohub,2013-06-08 20:09:00,
2013-06-08 15:14:00,89.1,65.7,29.84,WSW,257,2.0,7.0,46,0.00,,,0.00,meteohub,2013-06-08 20:14:00,
2013-06-08 15:19:00,89.8,66.2,29.83,SE,141,0.0,7.0,46,0.00,,,0.00,meteohub,2013-06-08 20:19:00,
2013-06-08 15:24:00,90.1,65.3,29.83,SE,130,0.0,6.0,44,0.00,,,0.00,meteohub,2013-06-08 20:24:00,
2013-06-08 15:29:00,90.7,65.8,29.83,SSW,205,2.0,6.0,44,0.00,,,0.00,meteohub,2013-06-08 20:29:00,
2013-06-08 15:34:00,90.7,65.1,29.83,East,94,0.0,6.0,43,0.00,,,0.00,meteohub,2013-06-08 20:34:00,
2013-06-08 15:39:00,90.9,65.3,29.83,SSW,205,1.0,5.0,43,0.00,,,0.00,meteohub,2013-06-08 20:39:00,
2013-06-08 15:44:00,91.0,65.5,29.83,East,84,0.0,5.0,43,0.00,,,0.00,meteohub,2013-06-08 20:44:00,
2013-06-08 15:49:00,91.0,64.8,29.83,SE,134,0.0,5.0,42,0.00,,,0.00,meteohub,2013-06-08 20:49:00,
2013-06-08 15:54:00,91.0,66.0,29.83,NNW,329,1.0,5.0,44,0.00,,,0.00,meteohub,2013-06-08 20:54:00,
2013-06-08 15:59:00,90.9,65.3,29.83,SW,230,5.0,5.0,43,0.00,,,0.00,meteohub,2013-06-08 20:59:00,
2013-06-08 16:05:00,91.0,64.8,29.83,East,94,3.0,8.0,42,0.00,,,0.00,meteohub,2013-06-08 21:05:00,
2013-06-08 16:10:00,91.0,64.8,29.83,SE,127,5.0,8.0,42,0.00,,,0.00,meteohub,2013-06-08 21:10:00,
2013-06-08 16:15:00,90.9,65.8,29.83,SE,133,4.0,8.0,44,0.00,,,0.00,meteohub,2013-06-08 21:15:00,
2013-06-08 16:20:00,90.7,65.8,29.83,ESE,112,0.0,7.0,44,0.00,,,0.00,meteohub,2013-06-08 21:20:00,
2013-06-08 16:25:00,90.7,66.4,29.83,East,80,1.0,7.0,45,0.00,,,0.00,meteohub,2013-06-08 21:25:00,
2013-06-08 16:30:00,90.1,65.8,29.82,SE,145,3.0,7.0,45,0.00,,,0.00,meteohub,2013-06-08 21:30:00,
2013-06-08 16:35:00,89.6,66.7,29.82,ESE,103,3.0,7.0,47,0.00,,,0.00,meteohub,2013-06-08 21:35:00,
2013-06-08 16:40:00,89.2,66.4,29.82,ESE,106,1.0,7.0,47,0.00,,,0.00,meteohub,2013-06-08 21:40:00,
2013-06-08 16:45:00,88.7,64.0,29.82,SE,134,1.0,7.0,44,0.00,,,0.00,meteohub,2013-06-08 21:45:00,
2013-06-08 16:50:00,88.3,65.5,29.82,SE,145,3.0,7.0,47,0.00,,,0.00,meteohub,2013-06-08 21:50:00,
2013-06-08 16:55:00,88.0,65.3,29.82,SSE,149,0.0,7.0,47,0.00,,,0.00,meteohub,2013-06-08 21:55:00,
2013-06-08 17:00:00,87.1,64.9,29.82,ESE,117,3.0,7.0,48,0.00,,,0.00,meteohub,2013-06-08 22:00:00,
2013-06-08 17:05:00,86.4,66.0,29.82,ESE,110,1.0,7.0,51,0.00,,,0.00,meteohub,2013-06-08 22:05:00,
2013-06-08 17:10:00,85.8,65.7,29.82,ESE,123,2.0,7.0,51,0.00,,,0.00,meteohub,2013-06-08 22:10:00,
2013-06-08 17:15:00,85.8,64.9,29.82,ESE,115,1.0,7.0,50,0.00,,,0.00,meteohub,2013-06-08 22:15:00,
2013-06-08 17:20:00,86.4,66.0,29.82,East,84,6.0,6.0,51,0.00,,,0.00,meteohub,2013-06-08 22:20:00,
2013-06-08 17:25:00,86.7,65.8,29.82,ENE,71,2.0,8.0,50,0.00,,,0.00,meteohub,2013-06-08 22:25:00,
2013-06-08 17:30:00,87.3,65.1,29.82,SE,128,4.0,10.0,48,0.00,,,0.00,meteohub,2013-06-08 22:30:00,
2013-06-08 17:35:00,87.4,65.8,29.82,SE,142,1.0,10.0,49,0.00,,,0.00,meteohub,2013-06-08 22:35:00,
2013-06-08 17:40:00,87.6,66.0,29.82,SE,138,3.0,10.0,49,0.00,,,0.00,meteohub,2013-06-08 22:40:00,
2013-06-08 17:45:00,87.4,65.3,29.81,SE,130,5.0,8.0,48,0.00,,,0.00,meteohub,2013-06-08 22:45:00,
2013-06-08 17:50:00,87.3,65.1,29.81,ESE,114,1.0,8.0,48,0.00,,,0.00,meteohub,2013-06-08 22:50:00,
2013-06-08 17:55:00,87.1,64.9,29.81,East,95,2.0,7.0,48,0.00,,,0.00,meteohub,2013-06-08 22:55:00,
2013-06-08 18:00:00,87.1,64.9,29.81,ESE,122,0.0,6.0,48,0.00,,,0.00,meteohub,2013-06-08 23:00:00,
2013-06-08 18:05:00,87.1,64.9,29.81,SE,140,3.0,7.0,48,0.00,,,0.00,meteohub,2013-06-08 23:05:00,
2013-06-08 18:10:00,87.1,65.7,29.81,ESE,110,5.0,7.0,49,0.00,,,0.00,meteohub,2013-06-08 23:10:00,
2013-06-08 18:15:00,87.1,65.7,29.81,SSE,156,4.0,7.0,49,0.00,,,0.00,meteohub,2013-06-08 23:15:00,
2013-06-08 18:20:00,87.4,65.3,29.81,ESE,111,2.0,7.0,48,0.00,,,0.00,meteohub,2013-06-08 23:20:00,
2013-06-08 18:25:00,87.6,64.9,29.81,ESE,121,1.0,6.0,47,0.00,,,0.00,meteohub,2013-06-08 23:25:00,
2013-06-08 18:30:00,87.4,64.0,29.80,East,82,2.0,6.0,46,0.00,,,0.00,meteohub,2013-06-08 23:30:00,
2013-06-08 18:31:00,87.3,64.6,29.80,SSE,165,4.0,6.0,47,0.00,,,0.00,meteohub,2013-06-08 23:31:00,
2013-06-08 18:37:00,87.1,64.9,29.80,SE,130,2.0,7.0,48,0.00,,,0.00,meteohub,2013-06-08 23:37:00,
2013-06-08 18:42:00,86.9,65.5,29.80,SE,129,1.0,7.0,49,0.00,,,0.00,meteohub,2013-06-08 23:42:00,
2013-06-08 18:47:00,86.7,65.3,29.80,SSE,149,0.0,7.0,49,0.00,,,0.00,meteohub,2013-06-08 23:47:00,
2013-06-08 18:52:00,86.4,63.7,29.80,SE,136,2.0,6.0,47,0.00,,,0.00,meteohub,2013-06-08 23:52:00,
2013-06-08 18:57:00,86.2,64.8,29.80,SE,137,1.0,8.0,49,0.00,,,0.00,meteohub,2013-06-08 23:57:00,
2013-06-08 19:02:00,86.2,66.6,29.80,SE,137,0.0,8.0,52,0.00,,,0.00,meteohub,2013-06-09 00:02:00,
2013-06-08 19:07:00,86.4,66.7,29.80,SE,137,0.0,5.0,52,0.00,,,0.00,meteohub,2013-06-09 00:07:00,
2013-06-08 19:12:00,86.5,66.7,29.80,SE,137,0.0,2.0,52,0.00,,,0.00,meteohub,2013-06-09 00:12:00,
2013-06-08 19:17:00,86.5,66.7,29.80,SE,137,1.0,1.0,52,0.00,,,0.00,meteohub,2013-06-09 00:17:00,
2013-06-08 19:22:00,86.7,66.4,29.80,SE,137,0.0,1.0,51,0.00,,,0.00,meteohub,2013-06-09 00:22:00,
2013-06-08 19:27:00,86.7,66.9,29.80,SE,137,0.0,2.0,52,0.00,,,0.00,meteohub,2013-06-09 00:27:00,
2013-06-08 19:32:00,86.5,67.5,29.80,SE,137,0.0,2.0,53,0.00,,,0.00,meteohub,2013-06-09 00:32:00,
2013-06-08 19:37:00,86.5,68.4,29.80,SE,137,0.0,2.0,55,0.00,,,0.00,meteohub,2013-06-09 00:37:00,
2013-06-08 19:42:00,86.2,68.2,29.80,SE,137,0.0,1.0,55,0.00,,,0.00,meteohub,2013-06-09 00:42:00,
2013-06-08 19:47:00,85.8,67.8,29.80,SE,137,0.0,1.0,55,0.00,,,0.00,meteohub,2013-06-09 00:47:00,
2013-06-08 19:52:00,85.3,66.7,29.80,SE,137,0.0,0.0,54,0.00,,,0.00,meteohub,2013-06-09 00:52:00,
2013-06-08 19:57:00,84.7,67.3,29.80,SE,137,0.0,0.0,56,0.00,,,0.00,meteohub,2013-06-09 00:57:00,
2013-06-08 20:02:00,84.0,67.6,29.81,SE,137,0.0,0.0,58,0.00,,,0.00,meteohub,2013-06-09 01:02:00,
2013-06-08 20:07:00,83.1,67.8,29.80,SE,137,0.0,0.0,60,0.00,,,0.00,meteohub,2013-06-09 01:07:00,
2013-06-08 20:12:00,82.2,66.9,29.80,SE,137,0.0,0.0,60,0.00,,,0.00,meteohub,2013-06-09 01:12:00,
2013-06-08 20:17:00,81.5,67.3,29.80,SE,137,0.0,0.0,62,0.00,,,0.00,meteohub,2013-06-09 01:17:00,
2013-06-08 20:22:00,80.8,66.6,29.80,SE,137,0.0,0.0,62,0.00,,,0.00,meteohub,2013-06-09 01:22:00,
2013-06-08 20:27:00,80.1,66.7,29.80,SE,137,0.0,0.0,64,0.00,,,0.00,meteohub,2013-06-09 01:27:00,
2013-06-08 20:32:00,79.5,66.7,29.81,SE,137,0.0,0.0,65,0.00,,,0.00,meteohub,2013-06-09 01:32:00,
2013-06-08 20:37:00,79.0,66.6,29.80,SE,137,0.0,0.0,66,0.00,,,0.00,meteohub,2013-06-09 01:37:00,
2013-06-08 20:43:00,78.3,66.4,29.80,SE,137,0.0,0.0,67,0.00,,,0.00,meteohub,2013-06-09 01:43:00,
2013-06-08 20:48:00,77.7,65.8,29.81,SE,137,0.0,0.0,67,0.00,,,0.00,meteohub,2013-06-09 01:48:00,
2013-06-08 20:53:00,77.4,66.0,29.81,SE,137,0.0,0.0,68,0.00,,,0.00,meteohub,2013-06-09 01:53:00,
2013-06-08 20:58:00,76.8,65.8,29.81,SE,137,0.0,0.0,69,0.00,,,0.00,meteohub,2013-06-09 01:58:00,
2013-06-08 21:03:00,76.5,66.0,29.81,SE,137,0.0,1.0,70,0.00,,,0.00,meteohub,2013-06-09 02:03:00,
2013-06-08 21:08:00,75.9,64.9,29.81,SE,137,0.0,1.0,69,0.00,,,0.00,meteohub,2013-06-09 02:08:00,
2013-06-08 21:13:00,75.6,65.1,29.81,SE,145,0.0,3.0,70,0.00,,,0.00,meteohub,2013-06-09 02:13:00,
2013-06-08 21:18:00,75.2,64.8,29.81,SE,137,1.0,3.0,70,0.00,,,0.00,meteohub,2013-06-09 02:18:00,
2013-06-08 21:23:00,74.8,64.8,29.80,SSE,151,0.0,3.0,71,0.00,,,0.00,meteohub,2013-06-09 02:23:00,
2013-06-08 21:28:00,74.7,64.6,29.81,SSE,151,0.0,3.0,71,0.00,,,0.00,meteohub,2013-06-09 02:28:00,
2013-06-08 21:33:00,74.5,64.4,29.81,SSE,151,0.0,3.0,71,0.00,,,0.00,meteohub,2013-06-09 02:33:00,
2013-06-08 21:38:00,74.1,64.6,29.81,SSE,151,0.0,2.0,72,0.00,,,0.00,meteohub,2013-06-09 02:38:00,
2013-06-08 21:44:00,73.9,64.4,29.81,SSE,151,0.0,2.0,72,0.00,,,0.00,meteohub,2013-06-09 02:44:00,
2013-06-08 21:49:00,73.9,64.4,29.81,SE,140,1.0,2.0,72,0.00,,,0.00,meteohub,2013-06-09 02:49:00,
2013-06-08 21:54:00,73.8,64.6,29.81,SE,140,0.0,3.0,73,0.00,,,0.00,meteohub,2013-06-09 02:54:00,
2013-06-08 21:59:00,73.6,64.4,29.81,SE,140,0.0,3.0,73,0.00,,,0.00,meteohub,2013-06-09 02:59:00,
2013-06-08 22:04:00,73.4,64.6,29.82,SE,140,3.0,3.0,74,0.00,,,0.00,meteohub,2013-06-09 03:04:00,
2013-06-08 22:09:00,73.2,64.4,29.82,SE,138,0.0,2.0,74,0.00,,,0.00,meteohub,2013-06-09 03:09:00,
2013-06-08 22:14:00,73.2,64.0,29.83,SE,145,0.0,4.0,73,0.00,,,0.00,meteohub,2013-06-09 03:14:00,
2013-06-08 22:19:00,73.0,64.2,29.83,SE,145,0.0,4.0,74,0.00,,,0.00,meteohub,2013-06-09 03:19:00,
2013-06-08 22:24:00,73.0,64.2,29.83,SE,145,1.0,3.0,74,0.00,,,0.00,meteohub,2013-06-09 03:24:00,
2013-06-08 22:29:00,72.9,64.0,29.83,SE,145,0.0,2.0,74,0.00,,,0.00,meteohub,2013-06-09 03:29:00,
2013-06-08 22:34:00,72.9,64.0,29.84,SE,145,0.0,2.0,74,0.00,,,0.00,meteohub,2013-06-09 03:34:00,
2013-06-08 22:39:00,72.7,64.2,29.84,SE,145,0.0,2.0,75,0.00,,,0.00,meteohub,2013-06-09 03:39:00,
2013-06-08 22:44:00,72.5,64.0,29.84,SE,145,0.0,2.0,75,0.00,,,0.00,meteohub,2013-06-09 03:44:00,
2013-06-08 22:49:00,72.3,63.9,29.84,SE,145,0.0,2.0,75,0.00,,,0.00,meteohub,2013-06-09 03:49:00,
2013-06-08 22:54:00,72.1,63.9,29.83,SE,145,0.0,2.0,75,0.00,,,0.00,meteohub,2013-06-09 03:54:00,
2013-06-08 22:59:00,72.0,64.0,29.83,SE,145,0.0,1.0,76,0.00,,,0.00,meteohub,2013-06-09 03:59:00,
2013-06-08 23:01:00,72.0,64.0,29.83,SE,145,0.0,1.0,76,0.00,,,0.00,meteohub,2013-06-09 04:01:00,
2013-06-08 23:02:00,72.0,64.0,29.83,SE,145,0.0,1.0,76,0.00,,,0.00,meteohub,2013-06-09 04:02:00,
2013-06-08 23:07:00,71.8,63.9,29.84,SE,145,1.0,1.0,76,0.00,,,0.00,meteohub,2013-06-09 04:07:00,
2013-06-08 23:12:00,71.8,64.2,29.84,SE,145,0.0,2.0,77,0.00,,,0.00,meteohub,2013-06-09 04:12:00,
2013-06-08 23:17:00,71.6,64.0,29.84,SE,145,0.0,3.0,77,0.00,,,0.00,meteohub,2013-06-09 04:17:00,
2013-06-08 23:22:00,71.6,64.0,29.85,SE,145,1.0,3.0,77,0.00,,,0.00,meteohub,2013-06-09 04:22:00,
2013-06-08 23:27:00,71.6,64.0,29.85,SSE,148,0.0,3.0,77,0.00,,,0.00,meteohub,2013-06-09 04:27:00,
2013-06-08 23:32:00,71.4,63.9,29.85,SSE,148,0.0,2.0,77,0.00,,,0.00,meteohub,2013-06-09 04:32:00,
2013-06-08 23:37:00,71.4,63.9,29.85,SSE,148,0.0,2.0,77,0.00,,,0.00,meteohub,2013-06-09 04:37:00,
2013-06-08 23:42:00,71.4,63.9,29.85,SSE,148,0.0,1.0,77,0.00,,,0.00,meteohub,2013-06-09 04:42:00,
2013-06-08 23:47:00,71.2,64.0,29.85,South,184,0.0,1.0,78,0.00,,,0.00,meteohub,2013-06-09 04:47:00,
2013-06-08 23:52:00,71.2,64.0,29.85,South,184,0.0,1.0,78,0.00,,,0.00,meteohub,2013-06-09 04:52:00,
2013-06-08 23:57:00,71.2,64.0,29.85,South,184,0.0,1.0,78,0.00,,,0.00,meteohub,2013-06-09 04:57:00,